Year,Month,Day,Hour,Minute,Value (Times are PST for windgust in km/hr)
2014,01,10,00,00,37.00
2014,01,10,00,01,35.40
2014,01,10,00,02,20.90
2014,01,10,00,03,29.00
2014,01,10,00,04,19.30
2014,01,10,00,05,25.70
2014,01,10,00,06,35.40
2014,01,10,00,07,24.20
2014,01,10,00,08,40.20
2014,01,10,00,09,29.00
2014,01,10,00,10,22.50
2014,01,10,00,11,27.40
2014,01,10,00,12,29.00
2014,01,10,00,13,27.40
2014,01,10,00,14,24.20
2014,01,10,00,15,27.40
2014,01,10,00,16,19.30
2014,01,10,00,17,29.00
2014,01,10,00,18,37.00
2014,01,10,00,19,29.00
2014,01,10,00,20,27.40
2014,01,10,00,21,33.80
2014,01,10,00,22,40.20
2014,01,10,00,23,27.40
2014,01,10,00,24,29.00
2014,01,10,00,25,22.50
2014,01,10,00,26,24.20
2014,01,10,00,27,20.90
2014,01,10,00,28,29.00
2014,01,10,00,29,25.70
2014,01,10,00,30,32.20
2014,01,10,00,31,25.70
2014,01,10,00,32,30.60
2014,01,10,00,33,22.50
2014,01,10,00,34,25.70
2014,01,10,00,35,25.70
2014,01,10,00,36,25.70
2014,01,10,00,37,24.20
2014,01,10,00,38,24.20
2014,01,10,00,39,30.60
2014,01,10,00,40,25.70
2014,01,10,00,41,25.70
2014,01,10,00,42,33.80
2014,01,10,00,43,27.40
2014,01,10,00,44,33.80
2014,01,10,00,45,20.90
2014,01,10,00,46,20.90
2014,01,10,00,47,30.60
2014,01,10,00,48,29.00
2014,01,10,00,49,27.40
2014,01,10,00,50,19.30
2014,01,10,00,51,24.20
2014,01,10,00,52,30.60
2014,01,10,00,53,24.20
2014,01,10,00,54,27.40
2014,01,10,00,55,29.00
2014,01,10,00,56,27.40
2014,01,10,00,57,19.30
2014,01,10,00,58,24.20
2014,01,10,00,59,17.70
2014,01,10,01,00,30.60
2014,01,10,01,01,32.20
2014,01,10,01,02,22.50
2014,01,10,01,03,19.30
2014,01,10,01,04,19.30
2014,01,10,01,05,29.00
2014,01,10,01,06,32.20
2014,01,10,01,07,22.50
2014,01,10,01,08,35.40
2014,01,10,01,09,24.20
2014,01,10,01,10,27.40
2014,01,10,01,11,29.00
2014,01,10,01,12,29.00
2014,01,10,01,13,22.50
2014,01,10,01,14,27.40
2014,01,10,01,15,30.60
2014,01,10,01,16,30.60
2014,01,10,01,17,29.00
2014,01,10,01,18,29.00
2014,01,10,01,19,29.00
2014,01,10,01,20,29.00
2014,01,10,01,21,32.20
2014,01,10,01,22,25.70
2014,01,10,01,23,25.70
2014,01,10,01,24,24.20
2014,01,10,01,25,22.50
2014,01,10,01,26,24.20
2014,01,10,01,27,22.50
2014,01,10,01,28,25.70
2014,01,10,01,29,24.20
2014,01,10,01,30,20.90
2014,01,10,01,31,22.50
2014,01,10,01,32,20.90
2014,01,10,01,33,27.40
2014,01,10,01,34,20.90
2014,01,10,01,35,29.00
2014,01,10,01,36,27.40
2014,01,10,01,37,16.10
2014,01,10,01,38,35.40
2014,01,10,01,39,27.40
2014,01,10,01,40,27.40
2014,01,10,01,41,38.60
2014,01,10,01,42,37.00
2014,01,10,01,43,33.80
2014,01,10,01,44,32.20
2014,01,10,01,45,30.60
2014,01,10,01,46,25.70
2014,01,10,01,47,32.20
2014,01,10,01,48,25.70
2014,01,10,01,49,41.80
2014,01,10,01,50,30.60
2014,01,10,01,51,38.60
2014,01,10,01,52,29.00
2014,01,10,01,53,25.70
2014,01,10,01,54,25.70
2014,01,10,01,55,27.40
2014,01,10,01,56,22.50
2014,01,10,01,57,22.50
2014,01,10,01,58,30.60
2014,01,10,01,59,25.70
2014,01,10,02,00,25.70
2014,01,10,02,01,22.50
2014,01,10,02,02,22.50
2014,01,10,02,03,24.20
2014,01,10,02,04,22.50
2014,01,10,02,05,20.90
2014,01,10,02,06,30.60
2014,01,10,02,07,25.70
2014,01,10,02,08,24.20
2014,01,10,02,09,22.50
2014,01,10,02,10,33.80
2014,01,10,02,11,25.70
2014,01,10,02,12,35.40
2014,01,10,02,13,25.70
2014,01,10,02,14,22.50
2014,01,10,02,15,33.80
2014,01,10,02,16,22.50
2014,01,10,02,17,22.50
2014,01,10,02,18,24.20
2014,01,10,02,19,19.30
2014,01,10,02,20,20.90
2014,01,10,02,21,38.60
2014,01,10,02,22,20.90
2014,01,10,02,23,25.70
2014,01,10,02,24,19.30
2014,01,10,02,25,25.70
2014,01,10,02,26,25.70
2014,01,10,02,27,30.60
2014,01,10,02,28,22.50
2014,01,10,02,29,16.10
2014,01,10,02,30,22.50
2014,01,10,02,31,29.00
2014,01,10,02,32,20.90
2014,01,10,02,33,24.20
2014,01,10,02,34,25.70
2014,01,10,02,35,22.50
2014,01,10,02,36,37.00
2014,01,10,02,37,32.20
2014,01,10,02,38,41.80
2014,01,10,02,39,37.00
2014,01,10,02,40,32.20
2014,01,10,02,41,35.40
2014,01,10,02,42,24.20
2014,01,10,02,43,33.80
2014,01,10,02,44,30.60
2014,01,10,02,45,32.20
2014,01,10,02,46,33.80
2014,01,10,02,47,29.00
2014,01,10,02,48,32.20
2014,01,10,02,49,24.20
2014,01,10,02,50,24.20
2014,01,10,02,51,29.00
2014,01,10,02,52,33.80
2014,01,10,02,53,37.00
2014,01,10,02,54,37.00
2014,01,10,02,55,29.00
2014,01,10,02,56,40.20
2014,01,10,02,57,29.00
2014,01,10,02,58,41.80
2014,01,10,02,59,37.00
2014,01,10,03,00,29.00
2014,01,10,03,01,24.20
2014,01,10,03,02,30.60
2014,01,10,03,06,30.60
2014,01,10,03,07,33.80
2014,01,10,03,08,24.20
2014,01,10,03,09,22.50
2014,01,10,03,10,32.20
2014,01,10,03,11,25.70
2014,01,10,03,12,24.20
2014,01,10,03,13,41.80
2014,01,10,03,14,32.20
2014,01,10,03,15,30.60
2014,01,10,03,16,38.60
2014,01,10,03,17,30.60
2014,01,10,03,18,30.60
2014,01,10,03,19,25.70
2014,01,10,03,20,22.50
2014,01,10,03,21,33.80
2014,01,10,03,22,30.60
2014,01,10,03,23,25.70
2014,01,10,03,24,27.40
2014,01,10,03,25,25.70
2014,01,10,03,26,33.80
2014,01,10,03,27,27.40
2014,01,10,03,28,25.70
2014,01,10,03,29,25.70
2014,01,10,03,30,32.20
2014,01,10,03,31,24.20
2014,01,10,03,32,25.70
2014,01,10,03,33,20.90
2014,01,10,03,34,29.00
2014,01,10,03,35,37.00
2014,01,10,03,36,19.30
2014,01,10,03,37,30.60
2014,01,10,03,38,32.20
2014,01,10,03,39,29.00
2014,01,10,03,40,24.20
2014,01,10,03,41,30.60
2014,01,10,03,42,30.60
2014,01,10,03,43,27.40
2014,01,10,03,44,29.00
2014,01,10,03,45,25.70
2014,01,10,03,46,25.70
2014,01,10,03,47,27.40
2014,01,10,03,48,24.20
2014,01,10,03,49,27.40
2014,01,10,03,50,25.70
2014,01,10,03,51,29.00
2014,01,10,03,52,29.00
2014,01,10,03,53,27.40
2014,01,10,03,54,25.70
2014,01,10,03,55,24.20
2014,01,10,03,56,22.50
2014,01,10,03,57,17.70
2014,01,10,03,58,20.90
2014,01,10,03,59,22.50
2014,01,10,04,00,27.40
2014,01,10,04,01,20.90
2014,01,10,04,02,25.70
2014,01,10,04,03,22.50
2014,01,10,04,04,32.20
2014,01,10,04,05,24.20
2014,01,10,04,06,27.40
2014,01,10,04,07,25.70
2014,01,10,04,08,22.50
2014,01,10,04,09,27.40
2014,01,10,04,10,29.00
2014,01,10,04,11,22.50
2014,01,10,04,12,25.70
2014,01,10,04,13,22.50
2014,01,10,04,14,27.40
2014,01,10,04,15,27.40
2014,01,10,04,16,20.90
2014,01,10,04,17,20.90
2014,01,10,04,18,24.20
2014,01,10,04,19,27.40
2014,01,10,04,20,30.60
2014,01,10,04,21,20.90
2014,01,10,04,22,30.60
2014,01,10,04,23,25.70
2014,01,10,04,24,27.40
2014,01,10,04,25,30.60
2014,01,10,04,26,22.50
2014,01,10,04,27,27.40
2014,01,10,04,28,24.20
2014,01,10,04,29,25.70
2014,01,10,04,30,27.40
2014,01,10,04,31,24.20
2014,01,10,04,32,24.20
2014,01,10,04,33,29.00
2014,01,10,04,34,33.80
2014,01,10,04,35,24.20
2014,01,10,04,36,29.00
2014,01,10,04,37,27.40
2014,01,10,04,38,20.90
2014,01,10,04,39,30.60
2014,01,10,04,40,24.20
2014,01,10,04,41,20.90
2014,01,10,04,42,29.00
2014,01,10,04,43,22.50
2014,01,10,04,44,24.20
2014,01,10,04,45,29.00
2014,01,10,04,46,24.20
2014,01,10,04,47,19.30
2014,01,10,04,48,22.50
2014,01,10,04,49,24.20
2014,01,10,04,50,27.40
2014,01,10,04,51,27.40
2014,01,10,04,52,19.30
2014,01,10,04,53,19.30
2014,01,10,04,54,24.20
2014,01,10,04,55,24.20
2014,01,10,04,56,20.90
2014,01,10,04,57,24.20
2014,01,10,04,58,22.50
2014,01,10,04,59,25.70
2014,01,10,05,00,24.20
2014,01,10,05,01,19.30
2014,01,10,05,02,17.70
2014,01,10,05,03,16.10
2014,01,10,05,04,16.10
2014,01,10,05,05,16.10
2014,01,10,05,06,24.20
2014,01,10,05,07,29.00
2014,01,10,05,08,17.70
2014,01,10,05,09,22.50
2014,01,10,05,10,22.50
2014,01,10,05,11,16.10
2014,01,10,05,12,20.90
2014,01,10,05,13,17.70
2014,01,10,05,14,22.50
2014,01,10,05,15,22.50
2014,01,10,05,16,19.30
2014,01,10,05,17,16.10
2014,01,10,05,18,16.10
2014,01,10,05,19,16.10
2014,01,10,05,20,19.30
2014,01,10,05,21,27.40
2014,01,10,05,22,25.70
2014,01,10,05,23,14.50
2014,01,10,05,24,19.30
2014,01,10,05,25,17.70
2014,01,10,05,26,11.30
2014,01,10,05,27,16.10
2014,01,10,05,28,17.70
2014,01,10,05,29,19.30
2014,01,10,05,30,19.30
2014,01,10,05,31,12.90
2014,01,10,05,32,12.90
2014,01,10,05,33,24.20
2014,01,10,05,34,22.50
2014,01,10,05,35,22.50
2014,01,10,05,36,20.90
2014,01,10,05,37,17.70
2014,01,10,05,38,14.50
2014,01,10,05,39,24.20
2014,01,10,05,40,25.70
2014,01,10,05,41,25.70
2014,01,10,05,42,20.90
2014,01,10,05,43,20.90
2014,01,10,05,44,20.90
2014,01,10,05,45,29.00
2014,01,10,05,46,11.30
2014,01,10,05,47,14.50
2014,01,10,05,48,24.20
2014,01,10,05,49,24.20
2014,01,10,05,50,30.60
2014,01,10,05,51,27.40
2014,01,10,05,52,25.70
2014,01,10,05,53,16.10
2014,01,10,05,54,16.10
2014,01,10,05,55,27.40
2014,01,10,05,56,12.90
2014,01,10,05,57,11.30
2014,01,10,05,58,20.90
2014,01,10,05,59,17.70
2014,01,10,06,00,12.90
2014,01,10,06,01,14.50
2014,01,10,06,02,19.30
2014,01,10,06,03,8.10
2014,01,10,06,04,11.30
2014,01,10,06,05,11.30
2014,01,10,06,06,8.10
2014,01,10,06,07,22.50
2014,01,10,06,08,19.30
2014,01,10,06,09,11.30
2014,01,10,06,10,12.90
2014,01,10,06,11,16.10
2014,01,10,06,12,20.90
2014,01,10,06,13,24.20
2014,01,10,06,14,8.10
2014,01,10,06,15,11.30
2014,01,10,06,16,19.30
2014,01,10,06,17,17.70
2014,01,10,06,18,16.10
2014,01,10,06,19,17.70
2014,01,10,06,20,20.90
2014,01,10,06,21,12.90
2014,01,10,06,22,14.50
2014,01,10,06,23,9.60
2014,01,10,06,24,9.60
2014,01,10,06,25,6.40
2014,01,10,06,26,8.10
2014,01,10,06,27,8.10
2014,01,10,06,28,8.10
2014,01,10,06,29,11.30
2014,01,10,06,30,6.40
2014,01,10,06,31,16.10
2014,01,10,06,32,9.60
2014,01,10,06,33,12.90
2014,01,10,06,34,8.10
2014,01,10,06,35,16.10
2014,01,10,06,36,22.50
2014,01,10,06,37,24.20
2014,01,10,06,38,30.60
2014,01,10,06,39,40.20
2014,01,10,06,40,19.30
2014,01,10,06,41,16.10
2014,01,10,06,42,14.50
2014,01,10,06,43,19.30
2014,01,10,06,44,17.70
2014,01,10,06,45,24.20
2014,01,10,06,46,17.70
2014,01,10,06,47,17.70
2014,01,10,06,48,16.10
2014,01,10,06,49,11.30
2014,01,10,06,50,14.50
2014,01,10,06,51,11.30
2014,01,10,06,52,8.10
2014,01,10,06,53,16.10
2014,01,10,06,54,14.50
2014,01,10,06,55,11.30
2014,01,10,06,56,14.50
2014,01,10,06,57,16.10
2014,01,10,06,58,9.60
2014,01,10,06,59,12.90
2014,01,10,07,00,24.20
2014,01,10,07,01,20.90
2014,01,10,07,02,14.50
2014,01,10,07,03,8.10
2014,01,10,07,04,11.30
2014,01,10,07,05,8.10
2014,01,10,07,06,14.50
2014,01,10,07,07,11.30
2014,01,10,07,08,19.30
2014,01,10,07,09,16.10
2014,01,10,07,10,9.60
2014,01,10,07,11,9.60
2014,01,10,07,12,14.50
2014,01,10,07,13,17.70
2014,01,10,07,14,16.10
2014,01,10,07,15,12.90
2014,01,10,07,16,22.50
2014,01,10,07,17,16.10
2014,01,10,07,18,14.50
2014,01,10,07,19,24.20
2014,01,10,07,20,27.40
2014,01,10,07,21,16.10
2014,01,10,07,22,17.70
2014,01,10,07,23,16.10
2014,01,10,07,24,20.90
2014,01,10,07,25,11.30
2014,01,10,07,26,14.50
2014,01,10,07,27,16.10
2014,01,10,07,28,16.10
2014,01,10,07,29,19.30
2014,01,10,07,30,14.50
2014,01,10,07,31,14.50
2014,01,10,07,32,17.70
2014,01,10,07,33,11.30
2014,01,10,07,34,9.60
2014,01,10,07,35,12.90
2014,01,10,07,36,14.50
2014,01,10,07,37,12.90
2014,01,10,07,38,14.50
2014,01,10,07,39,12.90
2014,01,10,07,40,11.30
2014,01,10,07,41,17.70
2014,01,10,07,42,19.30
2014,01,10,07,43,19.30
2014,01,10,07,44,29.00
2014,01,10,07,45,24.20
2014,01,10,07,46,19.30
2014,01,10,07,47,16.10
2014,01,10,07,48,17.70
2014,01,10,07,49,19.30
2014,01,10,07,50,14.50
2014,01,10,07,51,22.50
2014,01,10,07,52,16.10
2014,01,10,07,53,12.90
2014,01,10,07,54,16.10
2014,01,10,07,55,22.50
2014,01,10,07,56,22.50
2014,01,10,07,57,20.90
2014,01,10,07,58,19.30
2014,01,10,07,59,17.70
2014,01,10,08,00,14.50
2014,01,10,08,01,17.70
2014,01,10,08,02,17.70
2014,01,10,08,03,19.30
2014,01,10,08,04,19.30
2014,01,10,08,05,24.20
2014,01,10,08,06,24.20
2014,01,10,08,07,16.10
2014,01,10,08,08,19.30
2014,01,10,08,09,22.50
2014,01,10,08,10,14.50
2014,01,10,08,11,17.70
2014,01,10,08,12,24.20
2014,01,10,08,13,20.90
2014,01,10,08,14,20.90
2014,01,10,08,15,19.30
2014,01,10,08,16,17.70
2014,01,10,08,17,17.70
2014,01,10,08,18,14.50
2014,01,10,08,19,19.30
2014,01,10,08,20,16.10
2014,01,10,08,21,16.10
2014,01,10,08,22,14.50
2014,01,10,08,23,16.10
2014,01,10,08,24,12.90
2014,01,10,08,25,19.30
2014,01,10,08,26,17.70
2014,01,10,08,27,16.10
2014,01,10,08,28,12.90
2014,01,10,08,29,16.10
2014,01,10,08,30,12.90
2014,01,10,08,31,14.50
2014,01,10,08,32,19.30
2014,01,10,08,33,17.70
2014,01,10,08,34,19.30
2014,01,10,08,35,16.10
2014,01,10,08,36,12.90
2014,01,10,08,37,12.90
2014,01,10,08,38,12.90
2014,01,10,08,39,9.60
2014,01,10,08,40,17.70
2014,01,10,08,41,19.30
2014,01,10,08,42,24.20
2014,01,10,08,43,12.90
2014,01,10,08,44,16.10
2014,01,10,08,45,14.50
2014,01,10,08,46,24.20
2014,01,10,08,47,16.10
2014,01,10,08,48,17.70
2014,01,10,08,49,19.30
2014,01,10,08,50,22.50
2014,01,10,08,51,20.90
2014,01,10,08,52,19.30
2014,01,10,08,53,17.70
2014,01,10,08,54,17.70
2014,01,10,08,55,17.70
2014,01,10,08,56,29.00
2014,01,10,08,57,17.70
2014,01,10,08,58,22.50
2014,01,10,08,59,12.90
2014,01,10,09,00,19.30
2014,01,10,09,01,14.50
2014,01,10,09,02,22.50
2014,01,10,09,03,17.70
2014,01,10,09,04,20.90
2014,01,10,09,05,24.20
2014,01,10,09,06,30.60
2014,01,10,09,07,35.40
2014,01,10,09,08,24.20
2014,01,10,09,09,16.10
2014,01,10,09,10,14.50
2014,01,10,09,11,12.90
2014,01,10,09,12,17.70
2014,01,10,09,13,24.20
2014,01,10,09,14,32.20
2014,01,10,09,15,17.70
2014,01,10,09,16,24.20
2014,01,10,09,17,27.40
2014,01,10,09,18,20.90
2014,01,10,09,19,25.70
2014,01,10,09,20,16.10
2014,01,10,09,21,24.20
2014,01,10,09,22,22.50
2014,01,10,09,23,20.90
2014,01,10,09,24,12.90
2014,01,10,09,25,22.50
2014,01,10,09,26,22.50
2014,01,10,09,27,22.50
2014,01,10,09,28,17.70
2014,01,10,09,29,16.10
2014,01,10,09,30,16.10
2014,01,10,09,31,22.50
2014,01,10,09,32,22.50
2014,01,10,09,33,20.90
2014,01,10,09,34,19.30
2014,01,10,09,35,17.70
2014,01,10,09,36,16.10
2014,01,10,09,37,16.10
2014,01,10,09,38,12.90
2014,01,10,09,39,12.90
2014,01,10,09,40,12.90
2014,01,10,09,41,14.50
2014,01,10,09,42,14.50
2014,01,10,09,43,16.10
2014,01,10,09,44,16.10
2014,01,10,09,45,17.70
2014,01,10,09,46,16.10
2014,01,10,09,47,12.90
2014,01,10,09,48,14.50
2014,01,10,09,49,14.50
2014,01,10,09,50,17.70
2014,01,10,09,51,17.70
2014,01,10,09,52,20.90
2014,01,10,09,53,20.90
2014,01,10,09,54,17.70
2014,01,10,09,55,20.90
2014,01,10,09,56,12.90
2014,01,10,09,57,14.50
2014,01,10,09,58,24.20
2014,01,10,09,59,19.30
2014,01,10,10,00,29.00
2014,01,10,10,01,14.50
2014,01,10,10,02,20.90
2014,01,10,10,03,12.90
2014,01,10,10,04,17.70
2014,01,10,10,05,22.50
2014,01,10,10,06,24.20
2014,01,10,10,07,16.10
2014,01,10,10,08,19.30
2014,01,10,10,09,16.10
2014,01,10,10,10,29.00
2014,01,10,10,11,22.50
2014,01,10,10,12,27.40
2014,01,10,10,13,20.90
2014,01,10,10,14,11.30
2014,01,10,10,15,20.90
2014,01,10,10,16,24.20
2014,01,10,10,17,27.40
2014,01,10,10,18,27.40
2014,01,10,10,19,20.90
2014,01,10,10,20,29.00
2014,01,10,10,21,24.20
2014,01,10,10,22,29.00
2014,01,10,10,23,16.10
2014,01,10,10,24,14.50
2014,01,10,10,25,27.40
2014,01,10,10,26,19.30
2014,01,10,10,27,16.10
2014,01,10,10,28,17.70
2014,01,10,10,29,20.90
2014,01,10,10,30,16.10
2014,01,10,10,31,20.90
2014,01,10,10,32,24.20
2014,01,10,10,33,22.50
2014,01,10,10,34,19.30
2014,01,10,10,35,20.90
2014,01,10,10,36,11.30
2014,01,10,10,37,11.30
2014,01,10,10,38,8.10
2014,01,10,10,39,11.30
2014,01,10,10,40,12.90
2014,01,10,10,41,12.90
2014,01,10,10,42,9.60
2014,01,10,10,43,8.10
2014,01,10,10,44,8.10
2014,01,10,10,45,9.60
2014,01,10,10,46,4.80
2014,01,10,10,47,6.40
2014,01,10,10,48,11.30
2014,01,10,10,49,4.80
2014,01,10,10,50,3.20
2014,01,10,10,51,4.80
2014,01,10,10,52,6.40
2014,01,10,10,53,3.20
2014,01,10,10,54,8.10
2014,01,10,10,55,8.10
2014,01,10,10,56,1.60
2014,01,10,10,57,4.80
2014,01,10,10,58,4.80
2014,01,10,10,59,4.80
2014,01,10,11,00,4.80
2014,01,10,11,01,4.80
2014,01,10,11,02,3.20
2014,01,10,11,03,3.20
2014,01,10,11,04,3.20
2014,01,10,11,05,4.80
2014,01,10,11,06,4.80
2014,01,10,11,07,4.80
2014,01,10,11,08,3.20
2014,01,10,11,09,6.40
2014,01,10,11,10,4.80
2014,01,10,11,11,3.20
2014,01,10,11,13,3.20
2014,01,10,11,14,3.20
2014,01,10,11,15,1.60
2014,01,10,11,16,6.40
2014,01,10,11,17,8.10
2014,01,10,11,18,11.30
2014,01,10,11,19,8.10
2014,01,10,11,20,4.80
2014,01,10,11,21,3.20
2014,01,10,11,22,3.20
2014,01,10,11,23,3.20
2014,01,10,11,24,4.80
2014,01,10,11,25,11.30
2014,01,10,11,26,3.20
2014,01,10,11,27,12.90
2014,01,10,11,28,8.10
2014,01,10,11,29,6.40
2014,01,10,11,30,6.40
2014,01,10,11,31,8.10
2014,01,10,11,32,8.10
2014,01,10,11,33,8.10
2014,01,10,11,34,8.10
2014,01,10,11,35,8.10
2014,01,10,11,36,6.40
2014,01,10,11,37,9.60
2014,01,10,11,38,8.10
2014,01,10,11,39,8.10
2014,01,10,11,40,9.60
2014,01,10,11,41,11.30
2014,01,10,11,42,9.60
2014,01,10,11,43,11.30
2014,01,10,11,44,9.60
2014,01,10,11,45,11.30
2014,01,10,11,46,8.10
2014,01,10,11,47,9.60
2014,01,10,11,48,16.10
2014,01,10,11,49,14.50
2014,01,10,11,50,12.90
2014,01,10,11,51,11.30
2014,01,10,11,52,12.90
2014,01,10,11,53,11.30
2014,01,10,11,54,11.30
2014,01,10,11,55,17.70
2014,01,10,11,56,12.90
2014,01,10,11,57,9.60
2014,01,10,11,58,12.90
2014,01,10,11,59,9.60
2014,01,10,12,00,12.90
2014,01,10,12,01,12.90
2014,01,10,12,02,16.10
2014,01,10,12,03,11.30
2014,01,10,12,04,12.90
2014,01,10,12,05,11.30
2014,01,10,12,06,9.60
2014,01,10,12,07,9.60
2014,01,10,12,08,9.60
2014,01,10,12,09,9.60
2014,01,10,12,10,14.50
2014,01,10,12,11,14.50
2014,01,10,12,12,14.50
2014,01,10,12,13,19.30
2014,01,10,12,14,14.50
2014,01,10,12,15,14.50
2014,01,10,12,16,16.10
2014,01,10,12,17,16.10
2014,01,10,12,18,19.30
2014,01,10,12,19,17.70
2014,01,10,12,20,14.50
2014,01,10,12,21,17.70
2014,01,10,12,22,9.60
2014,01,10,12,23,9.60
2014,01,10,12,24,9.60
2014,01,10,12,25,14.50
2014,01,10,12,26,11.30
2014,01,10,12,27,8.10
2014,01,10,12,28,11.30
2014,01,10,12,29,9.60
2014,01,10,12,30,8.10
2014,01,10,12,31,11.30
2014,01,10,12,32,9.60
2014,01,10,12,33,9.60
2014,01,10,12,34,12.90
2014,01,10,12,35,9.60
2014,01,10,12,36,8.10
2014,01,10,12,37,9.60
2014,01,10,12,38,9.60
2014,01,10,12,39,9.60
2014,01,10,12,40,8.10
2014,01,10,12,41,9.60
2014,01,10,12,42,9.60
2014,01,10,12,43,6.40
2014,01,10,12,44,9.60
2014,01,10,12,45,8.10
2014,01,10,12,46,8.10
2014,01,10,12,47,8.10
2014,01,10,12,48,9.60
2014,01,10,12,49,11.30
2014,01,10,12,50,9.60
2014,01,10,12,51,4.80
2014,01,10,12,52,8.10
2014,01,10,12,53,9.60
2014,01,10,12,54,9.60
2014,01,10,12,55,9.60
2014,01,10,12,56,9.60
2014,01,10,12,57,11.30
2014,01,10,12,58,6.40
2014,01,10,12,59,8.10
2014,01,10,13,00,8.10
2014,01,10,13,01,6.40
2014,01,10,13,02,6.40
2014,01,10,13,03,8.10
2014,01,10,13,04,6.40
2014,01,10,13,05,6.40
2014,01,10,13,06,8.10
2014,01,10,13,07,11.30
2014,01,10,13,08,9.60
2014,01,10,13,09,6.40
2014,01,10,13,10,3.20
2014,01,10,13,11,4.80
2014,01,10,13,12,4.80
2014,01,10,13,13,4.80
2014,01,10,13,14,6.40
2014,01,10,13,15,6.40
2014,01,10,13,16,8.10
2014,01,10,13,17,6.40
2014,01,10,13,18,8.10
2014,01,10,13,19,6.40
2014,01,10,13,20,4.80
2014,01,10,13,21,8.10
2014,01,10,13,22,6.40
2014,01,10,13,23,4.80
2014,01,10,13,24,8.10
2014,01,10,13,25,6.40
2014,01,10,13,26,9.60
2014,01,10,13,27,11.30
2014,01,10,13,28,8.10
2014,01,10,13,29,8.10
2014,01,10,13,30,8.10
2014,01,10,13,31,6.40
2014,01,10,13,32,6.40
2014,01,10,13,33,8.10
2014,01,10,13,34,8.10
2014,01,10,13,35,4.80
2014,01,10,13,36,4.80
2014,01,10,13,37,6.40
2014,01,10,13,38,4.80
2014,01,10,13,39,6.40
2014,01,10,13,40,8.10
2014,01,10,13,41,6.40
2014,01,10,13,42,6.40
2014,01,10,13,43,4.80
2014,01,10,13,44,4.80
2014,01,10,13,45,6.40
2014,01,10,13,46,6.40
2014,01,10,13,47,8.10
2014,01,10,13,48,8.10
2014,01,10,13,49,6.40
2014,01,10,13,50,8.10
2014,01,10,13,51,6.40
2014,01,10,13,52,8.10
2014,01,10,13,53,6.40
2014,01,10,13,54,11.30
2014,01,10,13,55,8.10
2014,01,10,13,56,8.10
2014,01,10,13,57,12.90
2014,01,10,13,58,8.10
2014,01,10,13,59,6.40
2014,01,10,14,00,11.30
2014,01,10,14,01,4.80
2014,01,10,14,02,8.10
2014,01,10,14,03,4.80
2014,01,10,14,04,6.40
2014,01,10,14,05,4.80
2014,01,10,14,06,4.80
2014,01,10,14,07,4.80
2014,01,10,14,08,3.20
2014,01,10,14,09,3.20
2014,01,10,14,10,1.60
2014,01,10,14,11,1.60
2014,01,10,14,12,4.80
2014,01,10,14,13,8.10
2014,01,10,14,14,3.20
2014,01,10,14,15,4.80
2014,01,10,14,16,3.20
2014,01,10,14,17,4.80
2014,01,10,14,18,8.10
2014,01,10,14,19,9.60
2014,01,10,14,20,6.40
2014,01,10,14,21,6.40
2014,01,10,14,22,4.80
2014,01,10,14,23,6.40
2014,01,10,14,24,4.80
2014,01,10,14,25,4.80
2014,01,10,14,26,8.10
2014,01,10,14,27,4.80
2014,01,10,14,28,6.40
2014,01,10,14,29,3.20
2014,01,10,14,30,3.20
2014,01,10,14,31,3.20
2014,01,10,14,32,1.60
2014,01,10,14,33,3.20
2014,01,10,14,34,4.80
2014,01,10,14,35,8.10
2014,01,10,14,36,3.20
2014,01,10,14,37,6.40
2014,01,10,14,38,6.40
2014,01,10,14,39,4.80
2014,01,10,14,40,4.80
2014,01,10,14,41,1.60
2014,01,10,14,42,3.20
2014,01,10,14,43,4.80
2014,01,10,14,44,4.80
2014,01,10,14,45,4.80
2014,01,10,14,46,6.40
2014,01,10,14,47,4.80
2014,01,10,14,48,3.20
2014,01,10,14,49,1.60
2014,01,10,14,51,1.60
2014,01,10,14,52,1.60
2014,01,10,14,53,1.60
2014,01,10,14,54,3.20
2014,01,10,14,55,1.60
2014,01,10,14,56,1.60
2014,01,10,14,57,4.80
2014,01,10,14,58,3.20
2014,01,10,14,59,4.80
2014,01,10,15,00,3.20
2014,01,10,15,01,3.20
2014,01,10,15,02,1.60
2014,01,10,15,03,1.60
2014,01,10,15,04,1.60
2014,01,10,15,05,1.60
2014,01,10,15,06,6.40
2014,01,10,15,07,3.20
2014,01,10,15,08,3.20
2014,01,10,15,09,1.60
2014,01,10,15,10,1.60
2014,01,10,15,11,3.20
2014,01,10,15,12,1.60
2014,01,10,15,13,3.20
2014,01,10,15,14,3.20
2014,01,10,15,15,4.80
2014,01,10,15,16,8.10
2014,01,10,15,17,3.20
2014,01,10,15,18,1.60
2014,01,10,15,19,4.80
2014,01,10,15,20,3.20
2014,01,10,15,21,3.20
2014,01,10,15,22,4.80
2014,01,10,15,23,3.20
2014,01,10,15,24,3.20
2014,01,10,15,25,3.20
2014,01,10,15,26,8.10
2014,01,10,15,27,8.10
2014,01,10,15,28,4.80
2014,01,10,15,29,6.40
2014,01,10,15,30,4.80
2014,01,10,15,31,3.20
2014,01,10,15,32,3.20
2014,01,10,15,33,9.60
2014,01,10,15,34,3.20
2014,01,10,15,35,1.60
2014,01,10,15,36,4.80
2014,01,10,15,37,4.80
2014,01,10,15,38,1.60
2014,01,10,15,39,3.20
2014,01,10,15,40,8.10
2014,01,10,15,41,8.10
2014,01,10,15,42,4.80
2014,01,10,15,43,3.20
2014,01,10,15,44,9.60
2014,01,10,15,45,8.10
2014,01,10,15,46,3.20
2014,01,10,15,47,1.60
2014,01,10,15,48,3.20
2014,01,10,15,49,3.20
2014,01,10,15,50,1.60
2014,01,10,15,51,3.20
2014,01,10,15,52,3.20
2014,01,10,15,53,3.20
2014,01,10,15,54,3.20
2014,01,10,15,55,1.60
2014,01,10,15,56,3.20
2014,01,10,15,57,3.20
2014,01,10,15,58,3.20
2014,01,10,15,59,1.60
2014,01,10,16,02,1.60
2014,01,10,16,03,4.80
2014,01,10,16,04,3.20
2014,01,10,16,05,1.60
2014,01,10,16,06,1.60
2014,01,10,16,07,4.80
2014,01,10,16,08,4.80
2014,01,10,16,09,3.20
2014,01,10,16,10,3.20
2014,01,10,16,11,1.60
2014,01,10,16,12,4.80
2014,01,10,16,13,4.80
2014,01,10,16,14,1.60
2014,01,10,16,16,1.60
2014,01,10,16,18,1.60
2014,01,10,16,19,4.80
2014,01,10,16,20,3.20
2014,01,10,16,21,3.20
2014,01,10,16,22,3.20
2014,01,10,16,23,4.80
2014,01,10,16,24,3.20
2014,01,10,16,25,3.20
2014,01,10,16,26,4.80
2014,01,10,16,27,4.80
2014,01,10,16,28,1.60
2014,01,10,16,29,12.90
2014,01,10,16,30,4.80
2014,01,10,16,31,8.10
2014,01,10,16,32,8.10
2014,01,10,16,33,6.40
2014,01,10,16,34,8.10
2014,01,10,16,35,4.80
2014,01,10,16,36,3.20
2014,01,10,16,37,3.20
2014,01,10,16,38,3.20
2014,01,10,16,39,3.20
2014,01,10,16,40,3.20
2014,01,10,16,41,8.10
2014,01,10,16,42,9.60
2014,01,10,16,43,3.20
2014,01,10,16,44,3.20
2014,01,10,16,45,3.20
2014,01,10,16,46,4.80
2014,01,10,16,47,6.40
2014,01,10,16,48,3.20
2014,01,10,16,49,4.80
2014,01,10,16,50,4.80
2014,01,10,16,51,1.60
2014,01,10,16,52,3.20
2014,01,10,16,53,3.20
2014,01,10,16,54,6.40
2014,01,10,16,55,3.20
2014,01,10,16,56,6.40
2014,01,10,16,57,8.10
2014,01,10,16,58,3.20
2014,01,10,16,59,4.80
2014,01,10,17,00,8.10
2014,01,10,17,01,8.10
2014,01,10,17,02,6.40
2014,01,10,17,03,6.40
2014,01,10,17,04,4.80
2014,01,10,17,05,6.40
2014,01,10,17,06,4.80
2014,01,10,17,07,4.80
2014,01,10,17,08,4.80
2014,01,10,17,09,6.40
2014,01,10,17,10,3.20
2014,01,10,17,11,3.20
2014,01,10,17,12,3.20
2014,01,10,17,13,4.80
2014,01,10,17,14,9.60
2014,01,10,17,15,3.20
2014,01,10,17,16,3.20
2014,01,10,17,17,1.60
2014,01,10,17,18,3.20
2014,01,10,17,19,4.80
2014,01,10,17,20,3.20
2014,01,10,17,21,3.20
2014,01,10,17,22,8.10
2014,01,10,17,23,8.10
2014,01,10,17,24,3.20
2014,01,10,17,25,6.40
2014,01,10,17,26,4.80
2014,01,10,17,27,3.20
2014,01,10,17,28,6.40
2014,01,10,17,29,3.20
2014,01,10,17,30,6.40
2014,01,10,17,31,3.20
2014,01,10,17,32,4.80
2014,01,10,17,33,1.60
2014,01,10,17,34,3.20
2014,01,10,17,35,6.40
2014,01,10,17,36,3.20
2014,01,10,17,37,6.40
2014,01,10,17,38,4.80
2014,01,10,17,39,4.80
2014,01,10,17,40,3.20
2014,01,10,17,41,9.60
2014,01,10,17,42,6.40
2014,01,10,17,43,9.60
2014,01,10,17,44,4.80
2014,01,10,17,45,1.60